TimeCST,TemperatureF,Dew PointF,Humidity,Sea Level PressureIn,VisibilityMPH,Wind Direction,Wind SpeedMPH,Gust SpeedMPH,PrecipitationIn,Events,Conditions,WindDirDegrees,DateUTC
12:53 AM,35.1,30.0,82,30.22,10.0,Calm,Calm,-,N/A,,Clear,0,2012-11-04 05:53:00
1:53 AM,30.9,25.0,79,30.22,10.0,Calm,Calm,-,N/A,,Clear,0,2012-11-04 06:53:00
1:53 AM,35.1,28.9,78,30.21,10.0,Calm,Calm,-,N/A,,Scattered Clouds,0,2012-11-04 07:53:00
2:53 AM,34.0,28.9,82,30.20,10.0,Calm,Calm,-,N/A,,Partly Cloudy,0,2012-11-04 08:53:00
3:53 AM,30.9,26.1,82,30.22,10.0,Calm,Calm,-,N/A,,Clear,0,2012-11-04 09:53:00
4:53 AM,35.1,30.0,82,30.22,10.0,Calm,Calm,-,N/A,,Scattered Clouds,0,2012-11-04 10:53:00
5:53 AM,36.0,30.9,82,30.22,10.0,Calm,Calm,-,N/A,,Partly Cloudy,0,2012-11-04 11:53:00
6:53 AM,37.0,32.0,82,30.23,10.0,Calm,Calm,-,N/A,,Mostly Cloudy,0,2012-11-04 12:53:00
7:53 AM,39.0,34.0,82,30.24,9.0,Calm,Calm,-,N/A,,Partly Cloudy,0,2012-11-04 13:53:00
8:53 AM,42.1,34.0,73,30.23,10.0,South,3.5,-,N/A,,Partly Cloudy,180,2012-11-04 14:53:00
9:53 AM,48.0,34.0,58,30.22,10.0,South,4.6,-,N/A,,Clear,190,2012-11-04 15:53:00
10:53 AM,55.0,34.0,45,30.20,10.0,South,6.9,-,N/A,,Partly Cloudy,180,2012-11-04 16:53:00
11:53 AM,57.9,33.1,39,30.16,10.0,South,6.9,-,N/A,,Mostly Cloudy,180,2012-11-04 17:53:00
12:53 PM,61.0,35.1,38,30.12,10.0,South,12.7,-,N/A,,Clear,170,2012-11-04 18:53:00
1:53 PM,62.1,35.1,37,30.08,10.0,South,12.7,-,N/A,,Clear,170,2012-11-04 19:53:00
2:53 PM,60.1,34.0,38,30.07,10.0,South,10.4,-,N/A,,Clear,170,2012-11-04 20:53:00
3:53 PM,59.0,35.1,41,30.06,10.0,SSE,11.5,-,N/A,,Clear,150,2012-11-04 21:53:00
4:53 PM,57.9,36.0,44,30.05,10.0,SSE,9.2,-,N/A,,Clear,150,2012-11-04 22:53:00
5:53 PM,55.9,37.0,49,30.05,10.0,SE,8.1,-,N/A,,Clear,140,2012-11-04 23:53:00
6:53 PM,55.9,37.9,51,30.05,10.0,SSE,9.2,-,N/A,,Overcast,160,2012-11-05 00:53:00
7:53 PM,55.0,37.9,53,30.07,10.0,Calm,Calm,-,N/A,,Overcast,0,2012-11-05 01:53:00
8:53 PM,53.1,42.1,66,30.07,10.0,SE,3.5,-,0.00,Rain,Light Rain,140,2012-11-05 02:53:00
9:53 PM,48.9,45.0,86,30.06,8.0,SE,5.8,-,0.03,Rain,Light Rain,140,2012-11-05 03:53:00
10:53 PM,48.9,45.0,86,30.03,9.0,SSE,3.5,-,0.00,Rain,Light Rain,150,2012-11-05 04:53:00